Change the Weather History Date:

Monday, July 22, 2013

  Actual Average Record
Temperature  
Mean Temperature 72 °F -  
Max Temperature 87 °F - - ()
Min Temperature 57 °F - - ()
Cooling Degree Days 7    
Growing Degree Days 22 (Base 50)    
Moisture  
Dew Point 50 °F    
Average Humidity 41    
Maximum Humidity 88    
Minimum Humidity 22    
Precipitation  
Precipitation 0.00 in - - ()
Sea Level Pressure  
Sea Level Pressure 30.05 in    
Wind  
Wind Speed 5 mph ()    
Max Wind Speed 13 mph    
Max Gust Speed -    
T = Trace of Precipitation, MM = Missing Value Source: Averaged Metar Reports

Daily Weather History Graph

Daily Weather History Graph

Search for Another Location

Airport or City:

Trip Planner

Search our weather history database for the weather conditions in past years. The results will help you decide how hot, cold, wet, or windy it might be!

Date:

Astronomy

Jul. 22, 2013 Rise Set
Actual Time 7:04 AM CEST 9:47 PM CEST
Civil Twilight 6:31 AM CEST 10:19 PM CEST
Nautical Twilight 5:50 AM CEST 10:59 PM CEST
Astronomical Twilight 5:04 AM CEST 11:46 PM CEST
Moon 9:21 PM CEST (7/22) 6:44 AM CEST (7/22)
Length of Visible Light 15h 47m
Length of Day
14h 43m
Full, 100% of the Moon is Illuminated
Jul 22
Full
Jul 22
Full
Jul 29
Last Quarter
Aug 6
New
Aug 14
First Quarter

Hourly Weather History & Observations

Time (CEST) Temp. Dew Point Humidity Pressure Visibility Wind Dir Wind Speed Gust Speed Precip Events Conditions
7:00 AM 57.2 °F 53.6 °F 88% 30.06 in - SSE 3.5 mph - N/A   Clear
7:30 AM 57.2 °F 53.6 °F 88% 30.06 in - SSE 5.8 mph - N/A   Clear
8:00 AM 59.0 °F 55.4 °F 88% 30.06 in - SSE 6.9 mph - N/A   Clear
8:30 AM 62.6 °F 55.4 °F 77% 30.09 in - SE 5.8 mph - N/A   Clear
9:00 AM 66.2 °F 55.4 °F 68% 30.09 in - South 4.6 mph - N/A   Clear
9:30 AM 69.8 °F 51.8 °F 53% 30.09 in - Variable 2.3 mph - N/A   Clear
10:00 AM 71.6 °F 53.6 °F 53% 30.09 in - SSE 3.5 mph - N/A   Clear
10:30 AM 73.4 °F 51.8 °F 47% 30.09 in - Variable 2.3 mph - N/A   Clear
11:00 AM 75.2 °F 50.0 °F 41% 30.09 in - SSE 3.5 mph - N/A   Clear
11:30 AM 78.8 °F 48.2 °F 34% 30.09 in - South 3.5 mph - N/A   Clear
12:00 PM 80.6 °F 48.2 °F 32% 30.09 in - Variable 2.3 mph - N/A   Clear
12:30 PM 82.4 °F 48.2 °F 30% 30.09 in - SSW 3.5 mph - N/A   Clear
1:00 PM 82.4 °F 50.0 °F 32% 30.09 in - SSW 3.5 mph - N/A   Clear
1:30 PM 84.2 °F 50.0 °F 30% 30.09 in - SSW 5.8 mph - N/A   Clear
2:00 PM 86.0 °F 51.8 °F 31% 30.06 in - South 9.2 mph - N/A   Clear
2:30 PM 84.2 °F 51.8 °F 33% 30.06 in - SSW 8.1 mph - N/A   Clear
3:00 PM 86.0 °F 50.0 °F 29% 30.06 in - WSW 10.4 mph - N/A   Clear
3:30 PM 86.0 °F 50.0 °F 29% 30.06 in - WSW 9.2 mph - N/A   Clear
4:00 PM 87.8 °F 48.2 °F 25% 30.04 in - SSW 10.4 mph - N/A   Clear
4:30 PM 87.8 °F 50.0 °F 27% 30.04 in - SW 5.8 mph - N/A   Clear
5:00 PM 87.8 °F 48.2 °F 25% 30.04 in - SW 6.9 mph - N/A   Clear
5:30 PM 87.8 °F 46.4 °F 24% 30.01 in - Variable 5.8 mph - N/A   Clear
6:00 PM 84.2 °F 46.4 °F 27% 30.01 in - SSW 4.6 mph - N/A   Clear
6:30 PM 84.2 °F 48.2 °F 29% 30.01 in - SW 8.1 mph - N/A   Clear
7:00 PM 82.4 °F 51.8 °F 35% 30.01 in - South 8.1 mph - N/A   Clear
7:30 PM 82.4 °F 51.8 °F 35% 30.01 in - SSE 8.1 mph - N/A   Clear
8:00 PM 84.2 °F 48.2 °F 29% 30.01 in - SSW 9.2 mph - N/A   Clear
8:30 PM 84.2 °F 41.0 °F 22% 30.01 in - WSW 12.7 mph - N/A   Clear
9:00 PM 80.6 °F 42.8 °F 26% 30.01 in - WSW 8.1 mph - N/A   Clear
9:30 PM 78.8 °F 44.6 °F 30% 30.01 in - WSW 6.9 mph - N/A   Clear